Flag for U.S.A. Weather past 2 weeks in Hampton, Virginia, U.S.A.

Now
47 °F

Mostly cloudy.


Feels Like: 43 °F
Forecast: 49 / 59 °F
Wind: 9 mph from Northeast

Location: Langley Air Force Base


UV Index: 5 (Moderate)

Visibility: 10 mi


Pressure: 30.23 "Hg

Humidity: 83%

Dew point: 43 °F

Location of HamptonLocation

Historic Weather in Hampton

°F

Hampton temperature yesterday

Maximum temperature yesterday: 58 °F (at 2:58 PM)
Minimum temperature yesterday: 47 °F (at 11:58 PM)
Average temperature yesterday: 53 °F

Past Weeks' High & Low Weather Summary

 TemperatureHumidityPressure
High81 °F (Apr 13, 2:58 PM)100% (Apr 7, 6:59 AM)30.63 "Hg (Apr 7, 6:59 AM)
Low35 °F (Apr 16, 5:58 AM)29% (Apr 10, 12:58 PM)29.57 "Hg (Apr 8, 6:00 AM)
Average57 °F72%30.13 "Hg
* Reported Apr 6 12:58 AM — Apr 21 12:58 AM, Hampton, Weather by CustomWeather, © 2014

Note: Actual official high and low records may vary slightly from our data, if they occured in-between our weather recording intervals... More about our weather records

Advertising

Historic Weather Conditions — Data for Previous 24 hours

 ConditionsComfort  
Time TempWeatherWind HumidityBarometerVisibility
12:58 AM
Apr 21
48 °FOvercast.12 mph82%30.25 "Hg10 mi
11:58 PM
Apr 20
47 °FClear.13 mph81%30.26 "Hg10 mi
10:58 PM47 °FClear.13 mph74%30.28 "Hg10 mi
9:58 PM49 °FPassing clouds.16 mph70%30.29 "Hg10 mi
8:58 PM51 °FPassing clouds.15 mph64%30.29 "Hg10 mi
7:58 PM52 °FOvercast.15 mph55%30.29 "Hg10 mi
6:58 PM53 °FOvercast.16 mph60%30.31 "Hg10 mi
5:58 PM55 °FOvercast.22 mph56%30.32 "Hg10 mi
4:58 PM57 °FSunny.20 mph51%30.32 "Hg10 mi
3:58 PM58 °FSunny.25 mph57%30.32 "Hg10 mi
2:58 PM58 °FScattered clouds.25 mph59%30.33 "Hg10 mi
1:58 PM58 °FOvercast.18 mph66%30.34 "Hg10 mi
12:58 PM57 °FOvercast.23 mph66%30.34 "Hg9 mi
11:58 AM58 °FOvercast.20 mph68%30.34 "Hg10 mi
10:58 AM56 °FOvercast.23 mph68%30.34 "Hg10 mi
9:58 AM56 °FOvercast.17 mph70%30.33 "Hg10 mi
8:58 AM54 °FSunny.17 mph67%30.31 "Hg10 mi
7:58 AM53 °FSunny.14 mph64%30.30 "Hg10 mi
6:58 AM51 °FClear.16 mph70%30.27 "Hg10 mi
5:58 AM51 °FClear.12 mph62%30.26 "Hg10 mi
4:58 AM51 °FClear.16 mph61%30.26 "Hg10 mi
3:58 AM51 °FClear.10 mph69%30.26 "Hg10 mi
2:58 AM50 °FClear.12 mph70%30.25 "Hg10 mi
Weather by CustomWeather, © 2014

See weather overview